STARLINK-31668 (59580 NORAD) Tracking and Keplerian Element Data

This shows tracking and keplerian element data for the satellite.

Feedback or suggestion? Click here.




ElementValue
Catalog59580
NameSTARLINK-31668
Epoch Orbit828
Epoch Day160.05899952
Epoch Year2024
RAAN54.6973
Inclination42.9992
Eccentricity0.0001836
Argument of Perigee294.4526
Mean Anonmoly65.6139
Mean Motion15.40714631
Decay Rate0.00013317
L11 59580U 24076S 24160.05899952 .00013317 00000+0 32535-3 0 9991
L22 59580 42.9992 54.6973 0001836 294.4526 65.6139 15.40714631 8288



Live tracking and technical data element details for STARLINK-31668 (NORAD 59580). STARLINK-31668 can be tracked NOW for your location showing map with azimuth and elevation plus other details from your city location.







IsCatalogInMostPopularTable: catalog: 59580, numindb: 14
Update: records affected: 1



GetName: 59580 STARLINK-31668

Hit Count: updated at: Fri, 14 Jun 2024 19:57:08 GMT